Powrót do katalogu

CZ-6A DEB

AktywnyPO
NORAD 64632·DEBRIS·🇨🇳 China

Wystrzelony Aug 6, 2024 z Taiyuan Satellite Launch Center

Loading…

Następne Przeloty (najbliższe 24 godziny)

TLE

ŚwieżeSource: Space-Track

Epoka: Sep 13, 2026, 18:53 UTC

1 64632U 24140ADW 26256.78734530  .00001872  00000-0  72265-3 0  9993
2 64632  89.1453 277.2926 0065295 292.6502  66.7796 14.28717784104422

Śledź CZ-6A DEB w czasie rzeczywistym z AllMySat

Download on the App Store